Location: Eastlake (historical)
(39.0077°N, 122.6678°W)
Time: 16:13:42
(UTC+00:00)

Cosmos 1295 Rocket - Pass Details

Date: 25 November 2020
Orbit: 945 x 993 km, 82.9° (Epoch: 22 January)

Event Time Altitude Azimuth Distance (km) Brightness Sun altitude
Rises 14:31:57 0° 187° (S) 3,610 7.7 -6.7°
Reaches altitude 10° 14:34:26 10° 188° (S) 2,664 7.0 -6.3°
Maximum altitude 14:40:31 83° 276° (W) 957 4.5 -5.2°
Drops below altitude 10° 14:46:38 10° 6° (N) 2,672 6.6 -4.1°
Sets 14:49:08 0° 7° (N) 3,621 7.3 -3.6°
